Overview Statistics Trail Chart Weather Telemetry Raw packets
 

This is the latest recevied weather packets stored in our database for station/object KB1YTR-1. If no packets are shown the sender has not sent any weather packets the latest 10 day(s).

<< 24 25 26 27 28 29 30 >>
Time Temp. Humidity Pressure Rain* Wind** Luminosity Snow
1788196068 20° C 99% 1010.8 hPa 0 mm - - -
1788195254 19.44° C 99% 1010.7 hPa 0 mm - - -
1788194440 19.44° C 99% 1010.2 hPa 0 mm - - -
1788193684 18.89° C 99% 1010.5 hPa 0 mm - - -
1788192909 19.44° C 99% 1010.2 hPa 0 mm - - -
1788192118 20° C 99% 1010.3 hPa 0 mm - - -
1788191259 20° C 99% 1010.1 hPa 0 mm - - -
1788190395 20° C 99% 1010.1 hPa 0 mm - - -
1788189534 19.44° C 99% 1010.3 hPa 0 mm - - -
1788188672 18.89° C 99% 1009.8 hPa 0 mm - - -
1788187860 18.89° C 99% 1009.6 hPa 0 mm - - -
1788187059 18.33° C 99% 1009.7 hPa 0 mm - - -
1788186269 18.33° C 99% 1009.5 hPa 0 mm - - -
1788185537 18.33° C 99% 1009.4 hPa 0 mm - - -
1788184659 18.33° C 99% 1009.3 hPa 0 mm - - -
1788183904 18.33° C 99% 1009 hPa 0 mm - - -
1788183036 17.78° C 99% 1009 hPa 0 mm - - -
1788182144 17.78° C 99% 1009.2 hPa 0 mm - - -
1788181279 17.78° C 99% 1009.3 hPa 0 mm - - -
1788180385 17.78° C 99% 1009.4 hPa 0 mm - - -
1788179519 17.78° C 99% 1009.4 hPa 0 mm - - -
1788178691 17.78° C 99% 1009.2 hPa 0 mm - - -
1788177824 17.22° C 99% 1009.1 hPa 0 mm - - -
1788177029 17.22° C 99% 1009 hPa 0 mm - - -
1788176230 17.22° C 99% 1009 hPa 0 mm - - -

* Rain latest hour (hover to see other rain measurements)
** Current wind speed in m/s (hover to see current wind gust speed)